Location: Arborea
(39.7744°N, 8.5819°E)
Time: 03:17:39
(UTC+00:00)

USA 229 - Pass Details

Date: 01 June 2022
Orbit: 938 x 1274 km, 63.4° (Epoch: 24 May)

Event Time Altitude Azimuth Distance (km) Brightness Sun altitude
Rises 21:40:29 0° 329° (NNW) 3,966 8.1 -23.6°
Reaches altitude 10° 21:43:18 10° 337° (NNW) 3,054 7.2 -23.8°
Maximum altitude 21:50:16 43° 47° (NE) 1,647 4.7 -24.4°
Enters shadow 21:54:23 25° 102° (ESE) 2,283 5.1 -24.7°
